Ocean City, MD

11:42 AM EDT on June 28, 2017 (GMT -0400)
Ocean City Municipal

Weather History for KOXB - May, 2013

Change the Weather History Date:

Wednesday, May 29, 2013

  Actual Average (KSBY) Record (KSBY)
Temperature  
Mean Temperature 73 °F -  
Max Temperature 82 °F 77 °F 96 °F (1941)
Min Temperature 64 °F 55 °F 35 °F (1935)
Cooling Degree Days 8    
Growing Degree Days 23 (Base 50)    
Moisture  
Dew Point 66 °F    
Average Humidity 81    
Maximum Humidity 97    
Minimum Humidity 62    
Precipitation  
Precipitation 0.00 in - - ()
Sea Level Pressure  
Sea Level Pressure 30.14 in    
Wind  
Wind Speed 10 mph (SW)    
Max Wind Speed 15 mph    
Max Gust Speed 22 mph    
Visibility 10 miles    
Events      
Averages and records for this station are not official NWS values.
T = Trace of Precipitation, MM = Missing Value Source: NWS Daily Summary

Daily Weather History Graph

Daily Weather History Graph

Search for Another Location

Airport or City:

Trip Planner

Search our weather history database for the weather conditions in past years. The results will help you decide how hot, cold, wet, or windy it might be!

Date:

Astronomy

May. 29, 2013 Rise Set
Actual Time 5:39 AM EDT 8:16 PM EDT
Civil Twilight 5:09 AM EDT 8:47 PM EDT
Nautical Twilight 4:30 AM EDT 9:25 PM EDT
Astronomical Twilight 3:47 AM EDT 10:08 PM EDT
Moon No Moon Rise 10:34 AM EDT (5/29)
Length of Visible Light 15h 38m
Length of Day
14h 36m
Waning Gibbous, 73% of the Moon is Illuminated
May 29
Waning Gibbous
May 31
Last Quarter
Jun 8
New
Jun 16
First Quarter
Jun 23
Full

Hourly Weather History & Observations

Time (EDT) Temp. Heat Index Dew Point Humidity Pressure Visibility Wind Dir Wind Speed Gust Speed Precip Events Conditions
12:53 AM 66.9 °F - 62.1 °F 84% 30.15 in 10.0 mi SW 11.5 mph 18.4 mph N/A   Clear
1:53 AM 66.9 °F - 63.0 °F 87% 30.15 in 10.0 mi SW 13.8 mph 21.9 mph N/A   Clear
2:53 AM 66.9 °F - 63.0 °F 87% 30.14 in 10.0 mi SSW 10.4 mph - N/A   Clear
3:53 AM 66.0 °F - 64.0 °F 93% 30.14 in 10.0 mi SW 8.1 mph - N/A   Clear
4:53 AM 66.0 °F - 64.0 °F 93% 30.14 in 10.0 mi SW 6.9 mph - N/A   Clear
5:53 AM 64.9 °F - 64.0 °F 97% 30.14 in 10.0 mi SW 8.1 mph - N/A   Scattered Clouds
6:53 AM 66.9 °F - 64.9 °F 93% 30.14 in 10.0 mi SW 5.8 mph - N/A   Clear
7:53 AM 71.1 °F - 64.9 °F 81% 30.15 in 10.0 mi SW 10.4 mph - N/A   Clear
8:53 AM 73.9 °F - 66.0 °F 76% 30.15 in 10.0 mi SW 9.2 mph - N/A   Clear
9:53 AM 78.1 °F - 68.0 °F 71% 30.15 in 10.0 mi SW 10.4 mph - N/A   Clear
10:53 AM 80.1 °F 82.3 °F 66.9 °F 64% 30.15 in 10.0 mi SW 13.8 mph 20.7 mph N/A   Clear
11:53 AM 82.0 °F 84.9 °F 68.0 °F 62% 30.15 in 10.0 mi SW 15.0 mph - N/A   Clear
12:53 PM 78.1 °F - 69.1 °F 74% 30.15 in 10.0 mi South 9.2 mph 16.1 mph N/A   Clear
1:53 PM 77.0 °F - 68.0 °F 74% 30.14 in 10.0 mi SSW 11.5 mph 19.6 mph N/A   Clear
2:53 PM 78.1 °F - 68.0 °F 71% 30.14 in 10.0 mi SSW 11.5 mph 18.4 mph N/A   Clear
3:53 PM 73.0 °F - 64.9 °F 76% 30.13 in 10.0 mi SSW 6.9 mph - N/A   Clear
4:53 PM 72.0 °F - 64.9 °F 78% 30.13 in 10.0 mi SSW 9.2 mph - N/A   Clear
5:53 PM 72.0 °F - 64.0 °F 76% 30.12 in 10.0 mi SSW 8.1 mph - N/A   Clear
6:53 PM 75.0 °F - 66.0 °F 73% 30.13 in 10.0 mi SSW 10.4 mph - N/A   Clear
7:53 PM 73.0 °F - 66.0 °F 79% 30.13 in 10.0 mi SW 8.1 mph - N/A   Clear
8:53 PM 71.1 °F - 66.0 °F 84% 30.13 in 10.0 mi SSW 9.2 mph - N/A   Clear
9:53 PM 70.0 °F - 66.0 °F 87% 30.13 in 10.0 mi SSW 6.9 mph - N/A   Clear
10:53 PM 70.0 °F - 66.0 °F 87% 30.14 in 10.0 mi SW 8.1 mph - N/A   Clear
11:53 PM 69.1 °F - 66.0 °F 90% 30.15 in 10.0 mi SSW 6.9 mph - N/A   Clear